QPF
0.14 0.13 0.11 0.09 0.08 0.08 0.08 0.05 0.03 0.02 0.01 0.00 0.00 0.00 0.00 0.00 0.00 0.00 0.01 0.02 0.04 0.04 0.04 0.04 0.03 0.03 0.03 0.02 0.01 0.02 0.02 0.02 0.02 0.02 0.03 0.04 0.05 0.05 0.04 0.04 0.04 0.03 0.04
0.10 0.13 0.15 0.14 0.11 0.09 0.11 0.10 0.06 0.04 0.02 0.01 0.00 0.00 0.00 0.00 0.00 0.01 0.01 0.01 0.03 0.03 0.04 0.03 0.03 0.04 0.03 0.02 0.02 0.02 0.02 0.02 0.02 0.03 0.03 0.02 0.03 0.03 0.03 0.03 0.04 0.03 0.03
0.06 0.07 0.09 0.12 0.12 0.13 0.14 0.15 0.14 0.08 0.03 0.02 0.01 0.00 0.00 0.00 0.00 0.01 0.01 0.00 0.01 0.02 0.03 0.04 0.04 0.05 0.04 0.03 0.03 0.03 0.02 0.02 0.02 0.03 0.03 0.02 0.02 0.02 0.02 0.03 0.03 0.02 0.02
0.04 0.06 0.06 0.07 0.10 0.13 0.16 0.19 0.19 0.14 0.07 0.04 0.03 0.02 0.01 0.01 0.01 0.01 0.01 0.01 0.00 0.00 0.02 0.03 0.04 0.05 0.05 0.05 0.05 0.03 0.02 0.02 0.02 0.03 0.02 0.02 0.02 0.01 0.01 0.02 0.02 0.02 0.02
0.04 0.05 0.05 0.07 0.11 0.13 0.16 0.17 0.19 0.18 0.12 0.08 0.07 0.05 0.04 0.03 0.02 0.02 0.02 0.01 0.01 0.00 0.00 0.02 0.03 0.03 0.05 0.06 0.06 0.05 0.03 0.02 0.02 0.02 0.02 0.01 0.01 0.01 0.01 0.01 0.01 0.02 0.02
0.03 0.04 0.07 0.09 0.10 0.12 0.14 0.17 0.19 0.20 0.17 0.15 0.13 0.10 0.07 0.06 0.05 0.04 0.04 0.03 0.02 0.01 0.01 0.01 0.02 0.02 0.03 0.05 0.06 0.06 0.05 0.03 0.01 0.01 0.02 0.02 0.01 0.01 0.01 0.02 0.02 0.02 0.02
0.01 0.03 0.05 0.07 0.09 0.13 0.19 0.24 0.25 0.24 0.21 0.20 0.19 0.16 0.13 0.10 0.08 0.07 0.06 0.04 0.02 0.02 0.01 0.01 0.02 0.01 0.01 0.02 0.03 0.05 0.05 0.04 0.03 0.01 0.02 0.02 0.02 0.01 0.01 0.01 0.01 0.02 0.01
0.01 0.02 0.03 0.04 0.06 0.08 0.12 0.16 0.19 0.22 0.24 0.22 0.20 0.20 0.18 0.14 0.09 0.08 0.07 0.05 0.03 0.03 0.02 0.02 0.02 0.01 0.00 0.01 0.01 0.03 0.04 0.05 0.04 0.02 0.02 0.02 0.02 0.01 0.01 0.01 0.01 0.01 0.01
0.02 0.02 0.02 0.03 0.05 0.06 0.07 0.09 0.13 0.18 0.23 0.25 0.24 0.22 0.20 0.16 0.12 0.09 0.07 0.06 0.05 0.04 0.04 0.04 0.03 0.02 0.02 0.02 0.01 0.01 0.02 0.04 0.05 0.04 0.03 0.03 0.02 0.02 0.02 0.01 0.01 0.01 0.01
0.03 0.03 0.04 0.05 0.06 0.06 0.07 0.09 0.12 0.16 0.21 0.22 0.21 0.18 0.18 0.16 0.15 0.11 0.08 0.07 0.07 0.05 0.04 0.04 0.03 0.03 0.04 0.03 0.03 0.01 0.01 0.02 0.04 0.06 0.06 0.05 0.03 0.02 0.02 0.02 0.02 0.01 0.01
0.03 0.04 0.05 0.04 0.05 0.06 0.06 0.08 0.11 0.13 0.17 0.19 0.18 0.17 0.16 0.14 0.13 0.12 0.11 0.10 0.07 0.04 0.04 0.05 0.06 0.05 0.05 0.04 0.04 0.04 0.03 0.02 0.02 0.04 0.06 0.07 0.06 0.05 0.03 0.03 0.02 0.02 0.03
0.02 0.03 0.04 0.04 0.04 0.05 0.05 0.05 0.06 0.09 0.13 0.16 0.18 0.18 0.17 0.16 0.14 0.12 0.10 0.08 0.09 0.08 0.07 0.06 0.06 0.06 0.06 0.07 0.06 0.06 0.06 0.05 0.03 0.03 0.05 0.07 0.08 0.07 0.06 0.05 0.04 0.03 0.03
0.03 0.03 0.03 0.03 0.02 0.03 0.04 0.04 0.04 0.06 0.09 0.12 0.16 0.17 0.16 0.15 0.16 0.17 0.13 0.09 0.08 0.08 0.08 0.07 0.06 0.07 0.08 0.08 0.08 0.09 0.07 0.06 0.04 0.03 0.04 0.04 0.06 0.06 0.06 0.06 0.05 0.04 0.04
0.03 0.05 0.05 0.04 0.03 0.02 0.03 0.03 0.04 0.05 0.07 0.08 0.10 0.13 0.15 0.15 0.16 0.17 0.16 0.13 0.09 0.06 0.05 0.05 0.05 0.07 0.08 0.08 0.09 0.12 0.10 0.08 0.05 0.05 0.05 0.04 0.04 0.04 0.05 0.06 0.07 0.07 0.06
0.04 0.04 0.04 0.04 0.04 0.04 0.03 0.03 0.04 0.04 0.06 0.06 0.07 0.09 0.10 0.11 0.12 0.12 0.13 0.12 0.10 0.06 0.05 0.05 0.04 0.04 0.05 0.06 0.08 0.09 0.09 0.11 0.09 0.07 0.07 0.06 0.04 0.04 0.04 0.04 0.05 0.05 0.04
0.04 0.04 0.05 0.05 0.04 0.04 0.04 0.05 0.05 0.05 0.06 0.06 0.06 0.07 0.07 0.10 0.12 0.13 0.15 0.13 0.09 0.07 0.05 0.06 0.06 0.05 0.05 0.05 0.07 0.08 0.10 0.11 0.11 0.08 0.07 0.05 0.04 0.03 0.03 0.03 0.02 0.02 0.02
0.03 0.03 0.03 0.04 0.04 0.04 0.04 0.05 0.06 0.06 0.06 0.07 0.07 0.07 0.08 0.10 0.11 0.13 0.14 0.14 0.13 0.11 0.08 0.06 0.07 0.07 0.07 0.06 0.07 0.08 0.09 0.11 0.11 0.09 0.08 0.07 0.05 0.04 0.03 0.03 0.03 0.02 0.02
0.02 0.02 0.02 0.02 0.02 0.04 0.05 0.06 0.07 0.08 0.08 0.08 0.08 0.08 0.10 0.13 0.12 0.13 0.14 0.13 0.13 0.12 0.10 0.08 0.07 0.06 0.07 0.09 0.09 0.09 0.09 0.10 0.11 0.11 0.09 0.09 0.09 0.08 0.07 0.06 0.06 0.05 0.04
0.02 0.03 0.04 0.04 0.02 0.03 0.05 0.05 0.07 0.08 0.09 0.09 0.11 0.10 0.09 0.11 0.12 0.12 0.12 0.13 0.13 0.12 0.10 0.08 0.06 0.06 0.05 0.06 0.07 0.07 0.09 0.11 0.12 0.13 0.12 0.11 0.10 0.10 0.10 0.10 0.11 0.10 0.09
0.02 0.03 0.04 0.03 0.02 0.03 0.03 0.03 0.03 0.06 0.06 0.07 0.09 0.11 0.12 0.10 0.11 0.11 0.10 0.12 0.14 0.14 0.12 0.10 0.08 0.07 0.06 0.06 0.05 0.07 0.09 0.10 0.11 0.13 0.14 0.13 0.13 0.13 0.13 0.13 0.14 0.15 0.14
0.02 0.03 0.05 0.04 0.02 0.02 0.02 0.02 0.02 0.04 0.05 0.05 0.06 0.06 0.08 0.09 0.10 0.10 0.09 0.10 0.12 0.12 0.11 0.09 0.09 0.08 0.08 0.07 0.07 0.07 0.09 0.12 0.14 0.14 0.14 0.12 0.10 0.08 0.08 0.08 0.09 0.09 0.09
0.04 0.03 0.03 0.03 0.03 0.03 0.04 0.04 0.04 0.04 0.06 0.06 0.05 0.04 0.05 0.06 0.06 0.06 0.08 0.09 0.11 0.11 0.09 0.08 0.08 0.08 0.08 0.08 0.09 0.10 0.11 0.11 0.14 0.14 0.13 0.13 0.10 0.08 0.07 0.05 0.05 0.04 0.04
0.02 0.02 0.02 0.02 0.02 0.03 0.06 0.08 0.07 0.05 0.06 0.07 0.06 0.04 0.04 0.04 0.04 0.04 0.06 0.08 0.09 0.10 0.10 0.10 0.10 0.09 0.10 0.11 0.11 0.12 0.12 0.11 0.11 0.11 0.11 0.14 0.13 0.10 0.08 0.07 0.06 0.03 0.02
0.01 0.01 0.01 0.02 0.04 0.06 0.08 0.08 0.08 0.07 0.07 0.06 0.06 0.05 0.04 0.04 0.05 0.05 0.05 0.06 0.08 0.08 0.09 0.08 0.10 0.12 0.14 0.14 0.14 0.15 0.14 0.13 0.13 0.11 0.08 0.09 0.10 0.10 0.10 0.08 0.07 0.05 0.03
0.01 0.01 0.01 0.01 0.02 0.04 0.04 0.04 0.03 0.03 0.03 0.03 0.03 0.04 0.04 0.04 0.07 0.07 0.06 0.08 0.09 0.07 0.07 0.07 0.08 0.10 0.13 0.14 0.13 0.14 0.15 0.14 0.14 0.13 0.09 0.07 0.06 0.06 0.06 0.06 0.06 0.06 0.05
0.00 0.00 0.00 0.00 0.01 0.01 0.02 0.01 0.01 0.02 0.03 0.03 0.02 0.03 0.04 0.04 0.06 0.06 0.05 0.08 0.09 0.06 0.05 0.05 0.06 0.07 0.08 0.09 0.10 0.10 0.11 0.10 0.09 0.10 0.08 0.06 0.04 0.02 0.02 0.02 0.02 0.03 0.04
MSLP
1014.70 1014.53 1014.32 1014.14 1014.00 1013.96 1014.04 1014.23 1014.49 1014.80 1015.08 1015.30 1015.44 1015.49 1015.46 1015.39 1015.32 1015.28 1015.30 1015.37 1015.48 1015.63 1015.79 1015.95 1016.10 1016.25 1016.41 1016.60 1016.81 1017.06 1017.34 1017.64 1017.94 1018.23 1018.50 1018.75 1018.97 1019.16 1019.32 1019.47 1019.59 1019.68 1019.75
1014.55 1014.32 1014.07 1013.86 1013.71 1013.66 1013.74 1013.94 1014.22 1014.55 1014.86 1015.12 1015.30 1015.39 1015.39 1015.35 1015.30 1015.26 1015.26 1015.32 1015.42 1015.56 1015.72 1015.90 1016.07 1016.25 1016.44 1016.66 1016.89 1017.15 1017.43 1017.73 1018.03 1018.31 1018.59 1018.84 1019.07 1019.28 1019.47 1019.63 1019.77 1019.88 1019.96
1014.36 1014.10 1013.84 1013.62 1013.47 1013.43 1013.51 1013.71 1013.99 1014.33 1014.66 1014.94 1015.15 1015.27 1015.31 1015.30 1015.26 1015.24 1015.24 1015.28 1015.37 1015.50 1015.66 1015.83 1016.03 1016.23 1016.44 1016.68 1016.93 1017.20 1017.48 1017.77 1018.06 1018.34 1018.60 1018.86 1019.10 1019.33 1019.54 1019.74 1019.91 1020.04 1020.14
1014.14 1013.88 1013.63 1013.43 1013.30 1013.27 1013.35 1013.54 1013.81 1014.13 1014.44 1014.72 1014.95 1015.09 1015.17 1015.19 1015.19 1015.19 1015.20 1015.25 1015.33 1015.44 1015.59 1015.77 1015.96 1016.18 1016.41 1016.66 1016.93 1017.21 1017.49 1017.77 1018.05 1018.31 1018.57 1018.83 1019.08 1019.32 1019.56 1019.79 1019.99 1020.15 1020.27
1013.90 1013.66 1013.44 1013.28 1013.18 1013.17 1013.25 1013.42 1013.65 1013.93 1014.20 1014.46 1014.68 1014.84 1014.95 1015.02 1015.07 1015.10 1015.14 1015.19 1015.27 1015.39 1015.52 1015.69 1015.89 1016.11 1016.36 1016.62 1016.90 1017.18 1017.46 1017.74 1018.00 1018.26 1018.51 1018.76 1019.02 1019.28 1019.54 1019.78 1020.01 1020.20 1020.34
1013.66 1013.44 1013.26 1013.14 1013.08 1013.08 1013.16 1013.30 1013.48 1013.69 1013.92 1014.14 1014.35 1014.52 1014.67 1014.79 1014.89 1014.97 1015.05 1015.13 1015.23 1015.33 1015.47 1015.63 1015.82 1016.03 1016.28 1016.55 1016.83 1017.12 1017.40 1017.68 1017.94 1018.19 1018.44 1018.69 1018.95 1019.22 1019.48 1019.74 1019.98 1020.19 1020.34
1013.39 1013.19 1013.06 1012.98 1012.95 1012.97 1013.03 1013.12 1013.25 1013.41 1013.58 1013.76 1013.95 1014.15 1014.34 1014.52 1014.68 1014.83 1014.96 1015.08 1015.19 1015.30 1015.42 1015.57 1015.74 1015.95 1016.19 1016.46 1016.74 1017.03 1017.31 1017.59 1017.85 1018.11 1018.36 1018.61 1018.88 1019.15 1019.42 1019.68 1019.92 1020.12 1020.28
1013.11 1012.92 1012.80 1012.75 1012.74 1012.76 1012.81 1012.87 1012.95 1013.05 1013.18 1013.34 1013.53 1013.75 1013.99 1014.24 1014.48 1014.70 1014.89 1015.05 1015.18 1015.29 1015.40 1015.53 1015.68 1015.86 1016.08 1016.33 1016.61 1016.89 1017.18 1017.46 1017.74 1018.00 1018.26 1018.53 1018.80 1019.07 1019.34 1019.60 1019.83 1020.03 1020.18
1012.80 1012.59 1012.47 1012.42 1012.42 1012.44 1012.47 1012.51 1012.55 1012.61 1012.72 1012.87 1013.08 1013.34 1013.65 1013.97 1014.29 1014.58 1014.83 1015.03 1015.18 1015.30 1015.39 1015.49 1015.61 1015.76 1015.95 1016.18 1016.43 1016.71 1017.00 1017.28 1017.57 1017.85 1018.13 1018.41 1018.70 1018.98 1019.26 1019.51 1019.74 1019.92 1020.07
1012.47 1012.22 1012.08 1012.01 1012.00 1012.00 1012.01 1012.03 1012.05 1012.10 1012.19 1012.36 1012.61 1012.93 1013.30 1013.70 1014.10 1014.47 1014.78 1015.01 1015.18 1015.30 1015.38 1015.44 1015.53 1015.64 1015.79 1015.99 1016.22 1016.48 1016.75 1017.04 1017.34 1017.64 1017.94 1018.25 1018.56 1018.86 1019.15 1019.41 1019.63 1019.82 1019.96
1012.14 1011.84 1011.65 1011.54 1011.49 1011.46 1011.44 1011.43 1011.44 1011.49 1011.60 1011.80 1012.10 1012.47 1012.92 1013.40 1013.87 1014.30 1014.66 1014.94 1015.13 1015.25 1015.31 1015.36 1015.42 1015.50 1015.61 1015.77 1015.97 1016.20 1016.46 1016.75 1017.04 1017.36 1017.68 1018.02 1018.36 1018.69 1019.00 1019.28 1019.52 1019.71 1019.87
1011.85 1011.48 1011.22 1011.05 1010.94 1010.86 1010.80 1010.76 1010.75 1010.80 1010.94 1011.17 1011.51 1011.95 1012.46 1013.01 1013.54 1014.03 1014.44 1014.75 1014.97 1015.11 1015.19 1015.23 1015.27 1015.33 1015.42 1015.55 1015.71 1015.91 1016.15 1016.41 1016.70 1017.02 1017.36 1017.72 1018.09 1018.46 1018.80 1019.11 1019.38 1019.61 1019.79
1011.63 1011.19 1010.85 1010.60 1010.41 1010.26 1010.14 1010.05 1010.02 1010.06 1010.20 1010.46 1010.83 1011.32 1011.88 1012.48 1013.07 1013.61 1014.06 1014.42 1014.68 1014.85 1014.96 1015.03 1015.08 1015.14 1015.23 1015.33 1015.47 1015.64 1015.84 1016.08 1016.35 1016.66 1017.00 1017.38 1017.77 1018.16 1018.54 1018.89 1019.20 1019.47 1019.70
1011.53 1011.02 1010.60 1010.25 1009.96 1009.72 1009.51 1009.36 1009.28 1009.29 1009.42 1009.68 1010.07 1010.58 1011.17 1011.80 1012.43 1013.01 1013.51 1013.92 1014.24 1014.47 1014.64 1014.76 1014.86 1014.95 1015.05 1015.16 1015.28 1015.43 1015.59 1015.79 1016.03 1016.32 1016.65 1017.02 1017.42 1017.84 1018.25 1018.63 1018.99 1019.30 1019.58
1011.58 1011.01 1010.50 1010.05 1009.66 1009.30 1008.99 1008.75 1008.59 1008.55 1008.65 1008.89 1009.27 1009.77 1010.37 1011.01 1011.66 1012.27 1012.82 1013.28 1013.67 1013.98 1014.23 1014.43 1014.61 1014.76 1014.90 1015.03 1015.16 1015.29 1015.43 1015.59 1015.80 1016.05 1016.35 1016.70 1017.10 1017.51 1017.94 1018.35 1018.74 1019.10 1019.42
1011.77 1011.15 1010.57 1010.03 1009.52 1009.06 1008.64 1008.29 1008.05 1007.93 1007.96 1008.16 1008.50 1008.97 1009.55 1010.18 1010.83 1011.45 1012.03 1012.55 1013.01 1013.41 1013.76 1014.06 1014.33 1014.57 1014.78 1014.96 1015.11 1015.24 1015.37 1015.51 1015.67 1015.89 1016.15 1016.48 1016.85 1017.25 1017.67 1018.09 1018.49 1018.87 1019.23
1012.10 1011.46 1010.82 1010.20 1009.60 1009.03 1008.50 1008.06 1007.71 1007.51 1007.47 1007.59 1007.87 1008.30 1008.82 1009.41 1010.04 1010.66 1011.26 1011.82 1012.34 1012.81 1013.26 1013.67 1014.04 1014.38 1014.67 1014.91 1015.11 1015.26 1015.40 1015.53 1015.68 1015.87 1016.10 1016.39 1016.73 1017.11 1017.51 1017.91 1018.30 1018.67 1019.04
1012.53 1011.88 1011.21 1010.54 1009.87 1009.22 1008.61 1008.08 1007.65 1007.37 1007.24 1007.29 1007.49 1007.84 1008.29 1008.83 1009.40 1009.99 1010.58 1011.15 1011.71 1012.25 1012.76 1013.26 1013.73 1014.16 1014.53 1014.85 1015.11 1015.31 1015.48 1015.63 1015.79 1015.97 1016.19 1016.46 1016.77 1017.12 1017.48 1017.84 1018.20 1018.56 1018.90
1013.01 1012.38 1011.72 1011.03 1010.33 1009.64 1008.97 1008.38 1007.89 1007.53 1007.33 1007.29 1007.41 1007.67 1008.04 1008.49 1008.99 1009.52 1010.07 1010.62 1011.18 1011.74 1012.30 1012.85 1013.39 1013.89 1014.35 1014.75 1015.08 1015.35 1015.58 1015.78 1015.97 1016.18 1016.42 1016.69 1016.98 1017.30 1017.63 1017.95 1018.26 1018.57 1018.87
1013.52 1012.93 1012.31 1011.64 1010.95 1010.25 1009.57 1008.94 1008.41 1008.00 1007.73 1007.62 1007.65 1007.82 1008.09 1008.44 1008.84 1009.29 1009.76 1010.26 1010.78 1011.32 1011.88 1012.46 1013.03 1013.59 1014.10 1014.57 1014.98 1015.34 1015.64 1015.92 1016.19 1016.46 1016.74 1017.03 1017.34 1017.65 1017.95 1018.23 1018.50 1018.75 1019.00
1014.03 1013.51 1012.94 1012.33 1011.68 1011.01 1010.34 1009.72 1009.17 1008.72 1008.40 1008.22 1008.17 1008.24 1008.40 1008.64 1008.94 1009.27 1009.65 1010.06 1010.51 1011.00 1011.53 1012.09 1012.67 1013.24 1013.80 1014.33 1014.81 1015.25 1015.66 1016.03 1016.39 1016.75 1017.10 1017.45 1017.80 1018.12 1018.42 1018.68 1018.91 1019.11 1019.30
1014.53 1014.09 1013.61 1013.07 1012.49 1011.87 1011.25 1010.64 1010.09 1009.62 1009.26 1009.02 1008.89 1008.86 1008.91 1009.04 1009.22 1009.44 1009.71 1010.02 1010.38 1010.79 1011.26 1011.78 1012.33 1012.91 1013.49 1014.05 1014.60 1015.12 1015.61 1016.09 1016.55 1017.01 1017.46 1017.89 1018.29 1018.66 1018.97 1019.23 1019.44 1019.61 1019.76
1015.02 1014.68 1014.29 1013.84 1013.34 1012.79 1012.21 1011.63 1011.09 1010.60 1010.21 1009.90 1009.70 1009.58 1009.53 1009.55 1009.62 1009.73 1009.89 1010.10 1010.37 1010.71 1011.11 1011.57 1012.09 1012.64 1013.22 1013.80 1014.39 1014.97 1015.54 1016.11 1016.67 1017.22 1017.76 1018.28 1018.76 1019.18 1019.54 1019.83 1020.04 1020.20 1020.33
1015.51 1015.26 1014.97 1014.61 1014.18 1013.69 1013.16 1012.61 1012.07 1011.57 1011.14 1010.78 1010.50 1010.30 1010.17 1010.10 1010.07 1010.10 1010.17 1010.30 1010.50 1010.76 1011.10 1011.51 1011.98 1012.51 1013.07 1013.65 1014.25 1014.86 1015.48 1016.11 1016.74 1017.37 1017.99 1018.58 1019.13 1019.62 1020.04 1020.36 1020.61 1020.79 1020.91
1016.00 1015.83 1015.62 1015.33 1014.97 1014.53 1014.03 1013.49 1012.95 1012.44 1011.97 1011.57 1011.24 1010.98 1010.78 1010.63 1010.55 1010.51 1010.53 1010.61 1010.75 1010.98 1011.27 1011.64 1012.07 1012.56 1013.09 1013.66 1014.25 1014.85 1015.48 1016.12 1016.78 1017.45 1018.12 1018.77 1019.37 1019.92 1020.39 1020.78 1021.07 1021.28 1021.43
1016.45 1016.36 1016.20 1015.97 1015.65 1015.24 1014.77 1014.24 1013.71 1013.18 1012.68 1012.25 1011.88 1011.57 1011.33 1011.15 1011.03 1010.96 1010.95 1011.02 1011.15 1011.35 1011.62 1011.97 1012.37 1012.83 1013.33 1013.85 1014.40 1014.98 1015.57 1016.19 1016.84 1017.50 1018.17 1018.84 1019.48 1020.07 1020.58 1021.02 1021.37 1021.63 1021.82
Thickness
5735 5737 5739 5741 5743 5744 5746 5747 5748 5748 5748 5748 5748 5748 5749 5751 5752 5753 5753 5753 5753 5753 5753 5752 5752 5751 5750 5749 5749 5748 5747 5746 5746 5746 5745 5745 5745 5745 5744 5744 5744 5744 5744
5729 5731 5734 5736 5739 5740 5741 5743 5744 5745 5746 5746 5746 5747 5748 5749 5751 5751 5752 5752 5752 5752 5752 5751 5751 5750 5749 5748 5747 5747 5746 5745 5745 5744 5744 5743 5743 5743 5742 5742 5742 5742 5741
5722 5725 5728 5731 5734 5735 5737 5738 5740 5741 5741 5742 5743 5744 5746 5747 5749 5750 5750 5750 5750 5750 5750 5750 5749 5749 5748 5748 5747 5746 5745 5744 5743 5743 5742 5742 5741 5741 5740 5740 5739 5739 5739
5715 5718 5721 5725 5728 5730 5732 5733 5734 5735 5736 5737 5739 5741 5743 5744 5746 5747 5748 5748 5748 5748 5748 5748 5748 5748 5747 5746 5746 5745 5744 5743 5742 5741 5741 5740 5739 5738 5738 5737 5737 5736 5736
5708 5711 5714 5718 5721 5724 5726 5728 5730 5731 5731 5732 5734 5736 5738 5740 5742 5744 5745 5746 5746 5746 5746 5746 5746 5746 5745 5745 5744 5743 5742 5741 5740 5740 5739 5738 5737 5736 5736 5735 5735 5734 5734
5700 5703 5707 5711 5714 5717 5719 5722 5724 5725 5726 5728 5729 5731 5733 5735 5737 5739 5741 5742 5742 5743 5743 5743 5743 5743 5743 5743 5742 5742 5741 5740 5739 5738 5737 5736 5735 5734 5734 5733 5732 5732 5731
5691 5695 5699 5703 5706 5710 5713 5716 5717 5718 5719 5721 5720 5721 5725 5729 5732 5734 5736 5737 5738 5739 5740 5740 5741 5741 5741 5741 5740 5740 5739 5738 5737 5736 5735 5734 5733 5732 5731 5731 5730 5729 5729
5682 5687 5690 5694 5699 5702 5705 5709 5710 5711 5713 5715 5714 5711 5711 5715 5723 5728 5730 5732 5734 5735 5736 5737 5737 5738 5738 5738 5738 5737 5737 5736 5735 5734 5733 5732 5731 5730 5729 5728 5727 5727 5726
5674 5678 5682 5687 5691 5694 5697 5701 5704 5706 5706 5708 5711 5709 5705 5706 5712 5719 5723 5726 5728 5730 5732 5733 5734 5735 5735 5735 5735 5735 5734 5733 5733 5732 5731 5730 5728 5727 5726 5725 5724 5723 5723
5667 5671 5675 5679 5683 5687 5691 5694 5698 5700 5701 5701 5704 5707 5709 5709 5707 5708 5714 5719 5722 5725 5727 5729 5730 5730 5731 5731 5732 5732 5731 5731 5730 5729 5729 5728 5726 5725 5724 5722 5721 5720 5719
5660 5664 5668 5672 5676 5680 5684 5687 5691 5694 5697 5697 5698 5700 5701 5703 5705 5704 5705 5709 5714 5718 5721 5723 5725 5726 5727 5728 5728 5728 5728 5727 5727 5726 5725 5725 5724 5722 5721 5719 5718 5717 5716
5654 5658 5661 5665 5669 5672 5676 5681 5685 5688 5691 5693 5694 5696 5697 5697 5699 5700 5700 5702 5705 5710 5715 5717 5719 5721 5723 5723 5724 5724 5724 5724 5723 5723 5722 5721 5720 5719 5718 5716 5715 5714 5712
5648 5651 5655 5659 5662 5666 5670 5674 5678 5681 5684 5687 5689 5691 5693 5696 5698 5698 5697 5696 5698 5702 5706 5710 5714 5716 5718 5719 5720 5720 5720 5720 5719 5718 5718 5717 5716 5715 5714 5713 5711 5710 5708
5643 5646 5650 5653 5656 5661 5665 5668 5671 5674 5678 5680 5683 5685 5687 5690 5693 5694 5694 5692 5690 5692 5697 5703 5708 5711 5712 5714 5715 5715 5715 5715 5714 5713 5713 5712 5711 5711 5709 5708 5707 5705 5703
5641 5643 5646 5649 5652 5655 5659 5662 5664 5668 5671 5674 5677 5679 5681 5684 5687 5688 5690 5690 5688 5685 5689 5695 5700 5704 5706 5707 5708 5708 5709 5709 5708 5708 5707 5707 5706 5705 5703 5702 5701 5699 5698
5637 5640 5642 5645 5648 5651 5654 5657 5659 5662 5665 5668 5670 5672 5675 5677 5679 5682 5683 5685 5686 5686 5685 5689 5693 5697 5699 5701 5701 5702 5702 5702 5702 5702 5701 5700 5699 5698 5697 5696 5695 5693 5692
5635 5637 5639 5641 5644 5646 5649 5651 5653 5656 5659 5661 5664 5666 5668 5671 5673 5676 5677 5679 5680 5681 5681 5682 5686 5689 5691 5692 5693 5694 5695 5695 5695 5694 5694 5694 5692 5691 5690 5689 5687 5686 5685
5633 5634 5636 5638 5640 5642 5645 5647 5649 5651 5653 5655 5657 5660 5662 5665 5667 5670 5671 5673 5674 5677 5677 5676 5677 5680 5682 5684 5685 5686 5686 5687 5686 5686 5686 5686 5684 5683 5682 5681 5680 5679 5677
5631 5632 5633 5635 5636 5638 5641 5643 5644 5646 5648 5650 5652 5655 5657 5660 5662 5664 5666 5668 5669 5671 5672 5671 5671 5673 5674 5676 5677 5677 5677 5678 5678 5678 5678 5677 5676 5675 5674 5673 5672 5671 5670
5629 5630 5631 5632 5633 5636 5637 5639 5641 5642 5644 5646 5648 5651 5653 5656 5657 5659 5661 5663 5664 5664 5665 5665 5665 5665 5666 5667 5669 5668 5668 5668 5669 5669 5668 5667 5667 5666 5665 5664 5664 5663 5662
5628 5628 5628 5629 5631 5633 5634 5635 5637 5638 5639 5641 5643 5646 5648 5652 5654 5656 5658 5659 5659 5659 5659 5658 5658 5659 5659 5660 5661 5662 5660 5659 5659 5659 5658 5657 5657 5656 5655 5655 5654 5654 5653
5627 5626 5626 5626 5627 5629 5631 5633 5633 5633 5634 5636 5637 5640 5644 5647 5650 5652 5654 5656 5656 5656 5655 5654 5653 5654 5655 5656 5656 5655 5654 5653 5651 5650 5650 5647 5647 5646 5645 5644 5644 5645 5645
5625 5624 5624 5624 5624 5626 5629 5629 5630 5629 5630 5631 5633 5635 5639 5641 5643 5645 5647 5649 5650 5652 5653 5652 5650 5651 5651 5652 5651 5649 5649 5649 5647 5645 5643 5639 5637 5636 5635 5635 5636 5636 5636
5625 5623 5622 5622 5622 5623 5626 5626 5627 5626 5626 5627 5628 5630 5633 5635 5638 5639 5640 5641 5643 5645 5647 5648 5649 5648 5649 5649 5649 5647 5645 5642 5639 5638 5638 5633 5629 5628 5627 5626 5626 5627 5627
5626 5624 5622 5621 5621 5621 5623 5624 5624 5623 5623 5623 5625 5627 5629 5630 5634 5635 5635 5636 5637 5638 5641 5643 5644 5644 5644 5644 5644 5641 5639 5637 5633 5631 5630 5628 5623 5621 5619 5618 5618 5618 5619
5627 5625 5623 5621 5620 5620 5622 5623 5623 5621 5620 5620 5621 5623 5625 5627 5629 5630 5631 5632 5632 5632 5634 5635 5636 5637 5637 5637 5638 5639 5637 5634 5630 5627 5625 5623 5619 5617 5613 5611 5611 5611 5611